EXPRESS-AMU1

Last updated on Sun Sep 20 2026 00:02:58 GMT+0000 (Coordinated Universal Time)

1 41191U 15082A 26262.21534336 .00000151 00000+0 00000+0 0 9992 2 41191 0.0177 148.7576 0002394 34.0201 288.9655 1.00272785 39219
UTC large
Height (km)
Speed (km/s)
/
Latitude / Longitude
Inclination (degrees)
Orbital Period (minutes)
Azimuth
Elevation
Range (km)
Doppler Factor

Next 0 passes for location: London (51.5072 / 0.1276)

No passes found over London.
EXPRESS-AMU1